Regional Weather Roundup
Issued by NWS

Home | Current Version | Previous Version | Text Only | Print | Product List | Glossary On
Versions: 1 2 3 4 5 6 7 8 9 10 11 12 13 14 15 16 17 18 19 20 21 22 23 24 25 26 27 28 29 30 31 32 33 34 35 36 37 38 39 40 41 42 43 44 45 46 47 48 49 50
000
ASUS43 KMKX 180610
RWRWI

WISCONSIN REGIONAL WEATHER ROUNDUP
NATIONAL WEATHER SERVICE MILWAUKEE/SULLIVAN WI
1200 AM CST WED JAN 18 2017

NOTE: "FAIR" INDICATES FEW OR NO CLOUDS BELOW 12,000 FEET WITH NO
SIGNIFICANT WEATHER AND/OR OBSTRUCTIONS TO VISIBILITY.

WIZ001-002-006>008-014>016-023>028-180700-
NORTHWEST WISCONSIN

CITY           SKY/WX    TMP DP  RH WIND       PRES   REMARKS
SUPERIOR ARPT  CLOUDY    25  23  91 SW6       29.89S WCI  18
6HR MIN TEMP:  21; 6HR MAX TEMP:  28;

ASHLAND        CLOUDY    27  23  85 SW12      29.89F WCI  17
6HR MIN TEMP:  17; 6HR MAX TEMP:  32;

HAYWARD        FOG       28  26  92 SW9       29.92F VSB 1/2 WCI  19
6HR MIN TEMP:  20; 6HR MAX TEMP:  29;

SIREN          CLOUDY    29  27  91 SW13      29.94F WCI  19
6HR MIN TEMP:  28; 6HR MAX TEMP:  32;

CUMBERLAND     CLOUDY    30  28  93 SW12      29.94S FOG     WCI  21
RICE LAKE      FOG       31  31  99 S6        29.97F VSB 1/4 WCI  25
6HR MIN TEMP:  28; 6HR MAX TEMP:  33;

CHETEK         FOG       30  30 100 SW9       29.96F VSB 1   WCI  22
6HR MIN TEMP:  28; 6HR MAX TEMP:  32;

LADYSMITH      FOG       28  28  98 SW6       29.97S VSB 1/2 WCI  22
6HR MIN TEMP:  26; 6HR MAX TEMP:  32;

EAU CLAIRE     FOG       31  31 100 SW13      29.98S VSB 1/2 WCI  21
6HR MIN TEMP:  30; 6HR MAX TEMP:  33;

MENOMONIE      CLOUDY    32  32 100 MISG      29.99F FOG
6HR MIN TEMP:  32; 6HR MAX TEMP:  33;

NEW RICHMOND   CLOUDY    30  30  98 SW12      29.97S FOG     WCI  21
6HR MIN TEMP:  30; 6HR MAX TEMP:  32;

OSCEOLA        CLOUDY    30  30 100 SW8       29.99F WCI  22
6HR MIN TEMP:  30; 6HR MAX TEMP:  32;

$$

WIZ003>005-009-010-017-018-180700-
NORTH CENTRAL WISCONSIN

CITY           SKY/WX    TMP DP  RH WIND       PRES   REMARKS
MANITOWISH WTR   N/A     12  12  98 CALM      29.89S FOG
6HR MIN TEMP:  12; 6HR MAX TEMP:  28;

ARBOR VITAE    CLOUDY    19  17  93 CALM      29.90S
6HR MIN TEMP:  19; 6HR MAX TEMP:  32;

WOODRUFF       CLOUDY    19  17  93 CALM      29.90S
6HR MIN TEMP:  19; 6HR MAX TEMP:  32;

RHINELANDER    CLOUDY    24  22  91 SW5       29.90S WCI  18
6HR MIN TEMP:  21; 6HR MAX TEMP:  39;

EAGLE RIVER    CLOUDY    18  18  98 CALM      29.88F
6HR MIN TEMP:  16; 6HR MAX TEMP:  31;

LAND O LAKES   CLOUDY    14  12  92 CALM      29.89F
6HR MIN TEMP:  14; 6HR MAX TEMP:  29;

PHILLIPS       CLOUDY   N/A N/A N/A CALM      29.92R
TOMAHAWK       CLOUDY    27  26  96 CALM      29.92F
6HR MIN TEMP:  23; 6HR MAX TEMP:  31;

MEDFORD        FOG       27  26  98 SW5       29.93F VSB 1/4 WCI  21
6HR MIN TEMP:  27; 6HR MAX TEMP:  35;

MERRILL        FOG       25  25 100 CALM        N/A  VSB 1/4
6HR MIN TEMP:  25; 6HR MAX TEMP:  35;

$$

WIZ029-030-035-036-043>047-180700-
CENTRAL WISCONSIN

CITY           SKY/WX    TMP DP  RH WIND       PRES   REMARKS
WAUSAU         FOG       29  29 100 CALM      29.93R VSB 1
6HR MIN TEMP:  29; 6HR MAX TEMP:  35;

MOSINEE        FOG       28  28 100 SW6       29.96R VSB 1   WCI  22
MARSHFIELD     FOG       30  29  96 W10       29.94F VSB 3/4 WCI  21
6HR MIN TEMP:  30; 6HR MAX TEMP:  35;

STEVENS POINT  FOG       30  30 100 W8        29.97R VSB 3/4 WCI  23
6HR MIN TEMP:  30; 6HR MAX TEMP:  33;

WAUPACA        PTCLDY    36  34  94 CALM      29.96F FOG
6HR MIN TEMP:  35; 6HR MAX TEMP:  36;

WAUTOMA        CLOUDY    33  33 100 W9        29.98S FOG     WCI  25
6HR MIN TEMP:  33; 6HR MAX TEMP:  34;

WISC RAPIDS    FOG       32  32 100 W8        29.98F VSB 3/4 WCI  25
6HR MIN TEMP:  32; 6HR MAX TEMP:  34;

CAMP DOUGLAS   FOG       32  32 100 W9        29.99F VSB 1   WCI  24
6HR MIN TEMP:  33; 6HR MAX TEMP:  34;

$$

WIZ011>013-019>022-031-037>040-048>050-180700-
NORTHEAST WISCONSIN

CITY           SKY/WX    TMP DP  RH WIND       PRES   REMARKS
ANTIGO         FOG       24  24 100 CALM      29.92S VSB 1/4
6HR MIN TEMP:  22; 6HR MAX TEMP:  34;

SHAWANO          N/A     33  32  96 CALM      29.95S FOG
OCONTO         CLOUDY    32  32  99 CALM      29.94S VSB 1/2
6HR MIN TEMP:  32; 6HR MAX TEMP:  33;

STURGEON BAY   FOG       33  32  96 W3        29.94S VSB 1/4
                                      6HR PCP: TRACE;

GREEN BAY      CLOUDY    35  35 100 SW5       29.95S FOG     WCI  31
6HR MIN TEMP:  35; 6HR MAX TEMP:  35;

MANITOWOC      CLOUDY    34  33  96 W6        29.95S FOG     WCI  29
6HR MIN TEMP:  34; 6HR MAX TEMP:  34; 6HR PCP: TRACE;

APPLETON       FOG       32  32 100 W8        29.94S VSB 1/4 WCI  25
CLINTONVILLE   CLEAR     32  32 100 CALM      29.94F FOG
OSHKOSH        CLOUDY    34  33  96 W5        29.95F FOG     WCI  30
6HR MIN TEMP:  33; 6HR MAX TEMP:  34;

$$

WIZ032>034-041-042-053>061-180700-
SOUTHWEST WISCONSIN

CITY           SKY/WX    TMP DP  RH WIND       PRES   REMARKS
LA CROSSE      CLOUDY    35  33  92 SW6       30.02F FOG     WCI  30
6HR MIN TEMP:  34; 6HR MAX TEMP:  36;

SPARTA         FOG       32  32 100 W5        30.02F VSB 1   WCI  27
6HR MIN TEMP:  32; 6HR MAX TEMP:  33; 6HR PCP:  0.04;

VIROQUA        CLOUDY    32  32 100 W8        30.00S VSB<1/4 WCI  25
6HR MIN TEMP:  32; 6HR MAX TEMP:  33;

BOSCOBEL       CLOUDY    35  34  96 SW3       30.04S FOG
6HR MIN TEMP:  34; 6HR MAX TEMP:  35; 6HR PCP: TRACE;

PRAIRIE DU CHI CLOUDY    33  32  96 W8        30.05S FOG     WCI  26
6HR MIN TEMP:  33; 6HR MAX TEMP:  35;

PLATTEVILLE    CLOUDY    34  34 100 W7        30.03S WCI  28
6HR MIN TEMP:  33; 6HR MAX TEMP:  34;

$$

WIZ056-057-062-063-064-067-068-180700-
SOUTH CENTRAL WISCONSIN

CITY           SKY/WX    TMP DP  RH WIND       PRES   REMARKS
REEDSBURG      CLOUDY    33  33 100 W6        29.99S FOG     WCI  27
6HR MIN TEMP:  33; 6HR MAX TEMP:  33;

BARABOO/DELLS  FOG       33  33  99 W8        29.99S VSB 1/2 WCI  26
6HR MIN TEMP:  33; 6HR MAX TEMP:  33;

LONE ROCK      CLOUDY    34  33  96 W7        30.03S FOG     WCI  28
6HR MIN TEMP:  33; 6HR MAX TEMP:  34; 6HR PCP: TRACE;

MINERAL POINT  SNOW      34  34 100 W6        30.01S VSB 1/4 WCI  29
MADISON        CLOUDY    33  33 100 W3        30.00S FOG
6HR MIN TEMP:  33; 6HR MAX TEMP:  34; 6HR PCP: TRACE;

MIDDLETON      CLOUDY    35  35 100 W6        30.00S WCI  30
6HR MIN TEMP:  34; 6HR MAX TEMP:  35;

WATERTOWN      CLOUDY    33  33 100 W5        29.98S FOG     WCI  29
6HR MIN TEMP:  33; 6HR MAX TEMP:  33;

MONROE         CLOUDY    32  32 100 W9        30.01R FOG     WCI  24
JANESVILLE     CLOUDY    34  34 100 W7        30.01S WCI  28
$$

WIZ051-052-058>065-066-070>072-180700-
SOUTHEAST WISCONSIN

CITY           SKY/WX    TMP DP  RH WIND       PRES   REMARKS
MILWAUKEE      CLOUDY    36  33  89 W9        29.98R WCI  29
6HR MIN TEMP:  36; 6HR MAX TEMP:  37; 6HR PCP: TRACE;

WAUKESHA       CLOUDY    32  32 100 W7        29.99R FOG     WCI  26
MILWAUKEE/TIMM CLOUDY    34  32  93 W7        29.99R WCI  28
RACINE         CLOUDY    35  32  88 W9        30.00R WCI  28
6HR MIN TEMP:  35; 6HR MAX TEMP:  36; 6HR PCP:  0.01;

KENOSHA        CLOUDY    34  33  96 W10       29.99R FOG     WCI  26
6HR MIN TEMP:  34; 6HR MAX TEMP:  35; 6HR PCP:  0.03;

FOND DU LAC    CLOUDY    34  32  92 W3        29.97R FOG
6HR MIN TEMP:  34; 6HR MAX TEMP:  34; 6HR PCP:  0.03;

SHEBOYGAN      CLOUDY    34  32  92 NW7       29.95S WCI  28
6HR MIN TEMP:  33; 6HR MAX TEMP:  34; 6HR PCP: TRACE;

WEST BEND      CLOUDY    32  32 100 W8        29.96S FOG     WCI  25
JUNEAU         FOG       33  32  99 W5        29.98F VSB 1/4 WCI  28
6HR MIN TEMP:  32; 6HR MAX TEMP:  33;

$$

LSZ147-162-180700-
LAKE SUPERIOR

STATION/POSITION TIME  TEMP    WIND        PRES    WAVE
                       AIR SEA DIR/SP/G            HT/PER
                 (UTC) (F)     (DEG/KT/KT) (MB)    (FT/S)
DEVILS ISLAND    0600   32     220/ 14/ 18 1011.5F
PORT WING        0540   27     190/  6/  8 1012.2S
SAXON HARBOR     0530   26     200/  6/  8 1011.9F
$$

LMZ867-665-643>646-180700-
LAKE MICHIGAN

STATION/POSITION TIME  TEMP    WIND        PRES    WAVE
                       AIR SEA DIR/SP/G            HT/PER
                 (UTC) (F)     (DEG/KT/KT) (MB)    (FT/S)
NORTHPORT PIER   0600   33      CALM  /  3 1013.5
SISTER BAY       0520   32        CALM       N/A
KEWAUNEE LAKESHO 0542   33     290/  4/  7 1013.5R
SHEBOYGAN LAKESH 0600   34     30



USA.gov is the U.S. government's official web portal to all federal, state and local government web resources and services.